QPF
0.01 0.02 0.05 0.06 0.06 0.06 0.09 0.13 0.17 0.22 0.22 0.21 0.20 0.18 0.18 0.15 0.14 0.13 0.11 0.09 0.06 0.05 0.03 0.02 0.01 0.01 0.01 0.01 0.01 0.01 0.02 0.03 0.04 0.05 0.05 0.05 0.04 0.04 0.05 0.04 0.04 0.04 0.04
0.02 0.03 0.06 0.07 0.07 0.07 0.09 0.14 0.16 0.20 0.24 0.27 0.26 0.21 0.19 0.19 0.20 0.17 0.11 0.08 0.07 0.05 0.03 0.02 0.01 0.01 0.01 0.01 0.02 0.01 0.01 0.02 0.04 0.05 0.05 0.04 0.03 0.02 0.03 0.03 0.04 0.04 0.04
0.02 0.03 0.04 0.06 0.07 0.09 0.10 0.11 0.12 0.15 0.20 0.23 0.25 0.20 0.18 0.17 0.17 0.14 0.11 0.07 0.07 0.07 0.05 0.03 0.02 0.02 0.02 0.03 0.03 0.04 0.02 0.02 0.04 0.03 0.02 0.03 0.01 0.00 0.01 0.02 0.03 0.04 0.04
0.03 0.04 0.04 0.05 0.04 0.05 0.07 0.07 0.10 0.14 0.17 0.20 0.20 0.17 0.15 0.11 0.08 0.07 0.07 0.07 0.07 0.07 0.07 0.05 0.04 0.02 0.03 0.04 0.04 0.03 0.03 0.03 0.02 0.02 0.01 0.01 0.01 0.00 0.00 0.01 0.03 0.04 0.03
0.05 0.05 0.04 0.04 0.03 0.03 0.04 0.06 0.09 0.10 0.11 0.13 0.14 0.15 0.14 0.12 0.09 0.09 0.10 0.08 0.07 0.06 0.08 0.07 0.07 0.04 0.03 0.04 0.04 0.02 0.02 0.03 0.03 0.02 0.01 0.01 0.01 0.01 0.01 0.01 0.02 0.03 0.02
0.05 0.04 0.04 0.03 0.02 0.03 0.04 0.05 0.07 0.07 0.09 0.09 0.10 0.12 0.14 0.13 0.12 0.10 0.09 0.09 0.07 0.06 0.08 0.08 0.06 0.06 0.05 0.05 0.06 0.05 0.04 0.03 0.04 0.04 0.03 0.02 0.02 0.02 0.02 0.01 0.01 0.02 0.02
0.04 0.04 0.02 0.01 0.01 0.02 0.04 0.06 0.06 0.05 0.06 0.06 0.08 0.11 0.13 0.11 0.10 0.08 0.07 0.06 0.06 0.04 0.04 0.05 0.05 0.05 0.05 0.06 0.07 0.07 0.07 0.06 0.05 0.04 0.04 0.03 0.02 0.02 0.02 0.02 0.02 0.02 0.03
0.03 0.03 0.02 0.02 0.01 0.01 0.04 0.07 0.08 0.05 0.04 0.04 0.06 0.08 0.10 0.09 0.09 0.08 0.06 0.05 0.05 0.05 0.05 0.04 0.04 0.04 0.05 0.06 0.07 0.06 0.05 0.06 0.05 0.03 0.03 0.02 0.02 0.02 0.02 0.02 0.02 0.02 0.03
0.02 0.03 0.03 0.03 0.02 0.04 0.06 0.04 0.04 0.05 0.06 0.08 0.10 0.10 0.09 0.08 0.06 0.05 0.04 0.05 0.04 0.05 0.06 0.05 0.05 0.05 0.05 0.05 0.05 0.05 0.05 0.05 0.04 0.03 0.02 0.02 0.02 0.03 0.02 0.03 0.03 0.03 0.03
0.02 0.05 0.05 0.03 0.03 0.04 0.04 0.03 0.03 0.05 0.06 0.06 0.09 0.10 0.08 0.06 0.05 0.05 0.03 0.03 0.03 0.03 0.04 0.04 0.04 0.04 0.05 0.06 0.06 0.05 0.05 0.05 0.04 0.03 0.02 0.02 0.03 0.03 0.02 0.02 0.03 0.03 0.03
0.04 0.07 0.04 0.06 0.05 0.02 0.02 0.03 0.03 0.03 0.03 0.03 0.04 0.06 0.07 0.06 0.04 0.04 0.04 0.03 0.03 0.04 0.04 0.03 0.03 0.05 0.06 0.07 0.07 0.07 0.06 0.06 0.05 0.04 0.03 0.02 0.02 0.02 0.03 0.03 0.02 0.03 0.04
0.02 0.02 0.02 0.04 0.04 0.05 0.04 0.02 0.01 0.01 0.02 0.03 0.05 0.05 0.06 0.05 0.04 0.04 0.04 0.03 0.03 0.03 0.04 0.04 0.05 0.06 0.08 0.09 0.09 0.07 0.06 0.05 0.05 0.05 0.04 0.03 0.03 0.03 0.04 0.03 0.04 0.04 0.04
0.01 0.01 0.02 0.02 0.03 0.04 0.04 0.03 0.02 0.02 0.01 0.02 0.02 0.03 0.03 0.02 0.03 0.04 0.05 0.04 0.03 0.04 0.05 0.05 0.05 0.05 0.06 0.08 0.09 0.08 0.06 0.06 0.05 0.05 0.05 0.05 0.05 0.04 0.04 0.04 0.04 0.04 0.04
0.01 0.02 0.01 0.01 0.01 0.01 0.01 0.01 0.01 0.02 0.01 0.02 0.02 0.01 0.02 0.02 0.03 0.04 0.06 0.05 0.04 0.04 0.04 0.03 0.03 0.05 0.05 0.06 0.08 0.08 0.08 0.08 0.08 0.08 0.08 0.07 0.06 0.06 0.06 0.06 0.05 0.05 0.04
0.01 0.01 0.01 0.01 0.01 0.00 0.00 0.01 0.00 0.01 0.01 0.01 0.01 0.01 0.02 0.02 0.02 0.03 0.04 0.06 0.05 0.04 0.04 0.04 0.04 0.05 0.05 0.05 0.06 0.07 0.09 0.09 0.11 0.12 0.12 0.11 0.11 0.10 0.09 0.08 0.06 0.06 0.06
0.01 0.01 0.01 0.01 0.01 0.01 0.01 0.01 0.01 0.01 0.01 0.01 0.01 0.01 0.02 0.03 0.03 0.03 0.04 0.06 0.07 0.06 0.05 0.05 0.06 0.06 0.06 0.07 0.07 0.07 0.08 0.11 0.13 0.15 0.15 0.13 0.11 0.10 0.10 0.10 0.08 0.07 0.06
0.01 0.01 0.02 0.02 0.02 0.02 0.02 0.01 0.01 0.01 0.03 0.03 0.03 0.03 0.04 0.04 0.03 0.04 0.04 0.04 0.06 0.06 0.05 0.04 0.05 0.07 0.09 0.10 0.11 0.11 0.10 0.11 0.12 0.12 0.12 0.11 0.11 0.11 0.11 0.10 0.09 0.07 0.06
0.01 0.03 0.04 0.04 0.03 0.03 0.03 0.03 0.02 0.03 0.06 0.06 0.04 0.03 0.04 0.03 0.03 0.03 0.03 0.03 0.03 0.03 0.03 0.03 0.04 0.05 0.07 0.09 0.09 0.10 0.08 0.08 0.08 0.07 0.08 0.08 0.08 0.08 0.08 0.05 0.04 0.03 0.03
0.03 0.04 0.06 0.06 0.04 0.04 0.04 0.04 0.03 0.04 0.05 0.05 0.05 0.03 0.03 0.03 0.03 0.03 0.03 0.02 0.02 0.02 0.02 0.03 0.04 0.04 0.05 0.06 0.05 0.05 0.04 0.04 0.04 0.06 0.08 0.08 0.06 0.08 0.07 0.05 0.04 0.03 0.03
0.03 0.04 0.06 0.07 0.07 0.07 0.06 0.04 0.04 0.04 0.05 0.05 0.05 0.03 0.02 0.03 0.04 0.06 0.06 0.04 0.04 0.04 0.05 0.06 0.06 0.06 0.05 0.06 0.05 0.06 0.06 0.06 0.06 0.06 0.06 0.07 0.06 0.06 0.06 0.05 0.05 0.05 0.05
0.04 0.05 0.06 0.06 0.06 0.07 0.07 0.06 0.05 0.05 0.06 0.05 0.05 0.04 0.03 0.04 0.05 0.07 0.07 0.07 0.06 0.06 0.06 0.06 0.07 0.08 0.09 0.08 0.07 0.07 0.06 0.06 0.06 0.06 0.05 0.06 0.06 0.06 0.05 0.04 0.04 0.04 0.03
0.04 0.05 0.05 0.05 0.05 0.07 0.09 0.08 0.06 0.05 0.06 0.07 0.07 0.06 0.05 0.05 0.05 0.05 0.06 0.06 0.06 0.06 0.06 0.06 0.06 0.06 0.06 0.06 0.06 0.07 0.06 0.05 0.04 0.04 0.04 0.05 0.05 0.05 0.04 0.04 0.03 0.03 0.02
0.05 0.04 0.04 0.05 0.05 0.04 0.05 0.07 0.07 0.07 0.05 0.03 0.03 0.03 0.03 0.03 0.04 0.05 0.05 0.05 0.04 0.04 0.04 0.04 0.04 0.04 0.04 0.06 0.07 0.06 0.07 0.07 0.05 0.06 0.07 0.06 0.05 0.03 0.02 0.02 0.02 0.01 0.01
0.06 0.06 0.06 0.05 0.04 0.03 0.03 0.03 0.04 0.03 0.03 0.01 0.01 0.01 0.02 0.02 0.02 0.03 0.03 0.04 0.03 0.03 0.03 0.03 0.03 0.03 0.03 0.03 0.05 0.05 0.07 0.09 0.09 0.09 0.08 0.07 0.05 0.03 0.03 0.03 0.02 0.01 0.02
0.09 0.08 0.07 0.06 0.06 0.05 0.03 0.03 0.03 0.02 0.02 0.02 0.02 0.02 0.02 0.02 0.02 0.02 0.02 0.02 0.02 0.03 0.03 0.02 0.02 0.02 0.02 0.03 0.06 0.08 0.08 0.08 0.09 0.08 0.07 0.06 0.05 0.04 0.03 0.02 0.02 0.02 0.02
0.07 0.08 0.08 0.08 0.10 0.09 0.05 0.03 0.02 0.02 0.02 0.03 0.03 0.04 0.03 0.03 0.03 0.02 0.02 0.03 0.03 0.04 0.04 0.03 0.03 0.02 0.03 0.04 0.06 0.09 0.08 0.07 0.07 0.06 0.05 0.05 0.05 0.04 0.03 0.03 0.02 0.02 0.02
MSLP
1011.55 1011.87 1012.18 1012.50 1012.83 1013.21 1013.64 1014.14 1014.69 1015.27 1015.84 1016.35 1016.77 1017.08 1017.29 1017.41 1017.48 1017.55 1017.64 1017.80 1018.03 1018.33 1018.68 1019.07 1019.45 1019.80 1020.13 1020.42 1020.69 1020.94 1021.21 1021.49 1021.78 1022.07 1022.35 1022.58 1022.75 1022.85 1022.86 1022.82 1022.73 1022.63 1022.55
1011.50 1011.87 1012.22 1012.53 1012.84 1013.15 1013.51 1013.94 1014.45 1015.02 1015.60 1016.16 1016.65 1017.03 1017.28 1017.42 1017.47 1017.48 1017.51 1017.59 1017.77 1018.04 1018.39 1018.80 1019.22 1019.64 1020.02 1020.35 1020.64 1020.90 1021.15 1021.41 1021.69 1021.98 1022.26 1022.51 1022.71 1022.84 1022.89 1022.86 1022.77 1022.66 1022.55
1011.46 1011.89 1012.28 1012.61 1012.89 1013.15 1013.44 1013.79 1014.24 1014.77 1015.36 1015.95 1016.48 1016.92 1017.23 1017.39 1017.44 1017.43 1017.41 1017.43 1017.55 1017.78 1018.11 1018.53 1018.97 1019.42 1019.84 1020.20 1020.50 1020.77 1021.01 1021.25 1021.51 1021.78 1022.07 1022.34 1022.57 1022.74 1022.82 1022.83 1022.77 1022.66 1022.53
1011.40 1011.89 1012.34 1012.69 1012.96 1013.18 1013.39 1013.67 1014.04 1014.52 1015.08 1015.68 1016.26 1016.74 1017.10 1017.30 1017.37 1017.36 1017.32 1017.31 1017.39 1017.57 1017.87 1018.27 1018.72 1019.17 1019.60 1019.97 1020.28 1020.55 1020.78 1021.01 1021.25 1021.51 1021.80 1022.08 1022.34 1022.54 1022.68 1022.73 1022.71 1022.62 1022.50
1011.30 1011.85 1012.36 1012.75 1013.02 1013.21 1013.36 1013.56 1013.85 1014.26 1014.78 1015.36 1015.95 1016.47 1016.88 1017.14 1017.25 1017.26 1017.23 1017.21 1017.25 1017.41 1017.67 1018.04 1018.46 1018.91 1019.33 1019.70 1020.01 1020.27 1020.49 1020.71 1020.94 1021.19 1021.47 1021.76 1022.04 1022.28 1022.46 1022.56 1022.58 1022.54 1022.46
1011.15 1011.76 1012.32 1012.76 1013.05 1013.22 1013.33 1013.45 1013.66 1013.99 1014.44 1014.99 1015.57 1016.11 1016.56 1016.88 1017.05 1017.11 1017.11 1017.10 1017.14 1017.27 1017.51 1017.84 1018.23 1018.64 1019.04 1019.40 1019.70 1019.95 1020.17 1020.37 1020.59 1020.84 1021.11 1021.41 1021.69 1021.96 1022.17 1022.32 1022.41 1022.43 1022.40
1010.96 1011.62 1012.23 1012.72 1013.04 1013.21 1013.29 1013.35 1013.48 1013.73 1014.11 1014.60 1015.14 1015.69 1016.17 1016.53 1016.77 1016.89 1016.94 1016.97 1017.02 1017.15 1017.35 1017.65 1018.00 1018.38 1018.75 1019.09 1019.38 1019.62 1019.83 1020.03 1020.24 1020.48 1020.74 1021.03 1021.32 1021.60 1021.84 1022.04 1022.18 1022.28 1022.33
1010.76 1011.44 1012.10 1012.63 1012.99 1013.17 1013.24 1013.27 1013.34 1013.51 1013.80 1014.22 1014.72 1015.24 1015.73 1016.13 1016.42 1016.60 1016.71 1016.79 1016.87 1017.00 1017.20 1017.46 1017.78 1018.12 1018.46 1018.77 1019.05 1019.28 1019.49 1019.69 1019.90 1020.12 1020.37 1020.65 1020.93 1021.21 1021.48 1021.72 1021.93 1022.10 1022.25
1010.56 1011.25 1011.94 1012.51 1012.91 1013.12 1013.21 1013.22 1013.24 1013.35 1013.57 1013.92 1014.35 1014.83 1015.30 1015.71 1016.03 1016.27 1016.43 1016.55 1016.67 1016.81 1017.01 1017.25 1017.54 1017.84 1018.15 1018.45 1018.71 1018.94 1019.15 1019.35 1019.56 1019.78 1020.01 1020.27 1020.55 1020.83 1021.10 1021.38 1021.64 1021.90 1022.15
1010.40 1011.08 1011.78 1012.38 1012.82 1013.07 1013.18 1013.20 1013.21 1013.28 1013.44 1013.71 1014.08 1014.49 1014.92 1015.31 1015.64 1015.90 1016.10 1016.26 1016.41 1016.57 1016.77 1017.00 1017.26 1017.54 1017.82 1018.10 1018.35 1018.58 1018.80 1019.01 1019.22 1019.43 1019.67 1019.91 1020.17 1020.44 1020.73 1021.03 1021.34 1021.67 1022.02
1010.30 1010.95 1011.64 1012.24 1012.71 1013.01 1013.16 1013.22 1013.24 1013.29 1013.42 1013.63 1013.92 1014.27 1014.63 1014.98 1015.29 1015.55 1015.76 1015.94 1016.11 1016.28 1016.48 1016.70 1016.94 1017.20 1017.46 1017.72 1017.96 1018.20 1018.42 1018.64 1018.86 1019.09 1019.32 1019.56 1019.81 1020.08 1020.36 1020.68 1021.03 1021.42 1021.84
1010.25 1010.85 1011.50 1012.10 1012.58 1012.91 1013.12 1013.23 1013.29 1013.36 1013.47 1013.65 1013.88 1014.15 1014.44 1014.73 1014.99 1015.22 1015.42 1015.60 1015.77 1015.95 1016.14 1016.35 1016.58 1016.82 1017.06 1017.30 1017.54 1017.78 1018.02 1018.25 1018.49 1018.74 1018.98 1019.23 1019.48 1019.74 1020.03 1020.35 1020.72 1021.15 1021.63
1010.24 1010.78 1011.37 1011.93 1012.40 1012.76 1013.01 1013.19 1013.31 1013.43 1013.56 1013.72 1013.91 1014.12 1014.34 1014.56 1014.76 1014.94 1015.11 1015.27 1015.44 1015.61 1015.80 1015.99 1016.20 1016.42 1016.64 1016.87 1017.10 1017.34 1017.59 1017.85 1018.11 1018.38 1018.65 1018.91 1019.17 1019.44 1019.73 1020.06 1020.44 1020.89 1021.40
1010.27 1010.72 1011.22 1011.71 1012.15 1012.52 1012.82 1013.06 1013.26 1013.44 1013.61 1013.79 1013.97 1014.14 1014.30 1014.45 1014.60 1014.73 1014.86 1014.99 1015.14 1015.30 1015.47 1015.65 1015.84 1016.04 1016.23 1016.44 1016.66 1016.90 1017.16 1017.43 1017.73 1018.03 1018.33 1018.63 1018.92 1019.21 1019.51 1019.84 1020.22 1020.67 1021.18
1010.30 1010.65 1011.04 1011.44 1011.83 1012.19 1012.52 1012.83 1013.10 1013.36 1013.59 1013.81 1013.99 1014.15 1014.28 1014.39 1014.49 1014.58 1014.68 1014.79 1014.91 1015.06 1015.21 1015.38 1015.54 1015.71 1015.88 1016.06 1016.26 1016.49 1016.76 1017.05 1017.38 1017.73 1018.08 1018.42 1018.75 1019.08 1019.40 1019.73 1020.11 1020.54 1021.04
1010.33 1010.57 1010.84 1011.14 1011.46 1011.80 1012.14 1012.49 1012.84 1013.17 1013.48 1013.74 1013.96 1014.13 1014.26 1014.35 1014.42 1014.49 1014.57 1014.67 1014.78 1014.92 1015.06 1015.21 1015.35 1015.48 1015.62 1015.77 1015.95 1016.17 1016.44 1016.75 1017.11 1017.51 1017.91 1018.31 1018.70 1019.07 1019.42 1019.77 1020.14 1020.55 1021.01
1010.37 1010.50 1010.66 1010.85 1011.09 1011.38 1011.72 1012.10 1012.50 1012.90 1013.27 1013.60 1013.86 1014.06 1014.21 1014.31 1014.38 1014.46 1014.54 1014.64 1014.76 1014.90 1015.04 1015.17 1015.29 1015.40 1015.50 1015.62 1015.77 1015.98 1016.24 1016.57 1016.97 1017.41 1017.87 1018.33 1018.78 1019.21 1019.60 1019.97 1020.34 1020.73 1021.16
1010.43 1010.48 1010.54 1010.64 1010.80 1011.05 1011.36 1011.75 1012.18 1012.62 1013.04 1013.41 1013.72 1013.95 1014.13 1014.26 1014.36 1014.46 1014.58 1014.70 1014.85 1015.00 1015.15 1015.28 1015.38 1015.47 1015.55 1015.64 1015.77 1015.95 1016.21 1016.56 1016.98 1017.46 1017.98 1018.51 1019.02 1019.50 1019.94 1020.34 1020.72 1021.10 1021.50
1010.56 1010.56 1010.55 1010.58 1010.69 1010.88 1011.16 1011.53 1011.96 1012.40 1012.84 1013.23 1013.57 1013.83 1014.04 1014.21 1014.36 1014.50 1014.66 1014.83 1015.01 1015.20 1015.37 1015.51 1015.61 1015.69 1015.76 1015.83 1015.94 1016.11 1016.37 1016.72 1017.16 1017.68 1018.24 1018.83 1019.40 1019.93 1020.42 1020.85 1021.25 1021.62 1021.99
1010.78 1010.77 1010.74 1010.74 1010.80 1010.95 1011.20 1011.53 1011.92 1012.34 1012.75 1013.13 1013.46 1013.74 1013.97 1014.17 1014.36 1014.55 1014.76 1014.98 1015.22 1015.45 1015.65 1015.82 1015.94 1016.03 1016.09 1016.16 1016.26 1016.43 1016.68 1017.04 1017.50 1018.04 1018.64 1019.26 1019.87 1020.45 1020.98 1021.44 1021.86 1022.23 1022.59
1011.11 1011.13 1011.13 1011.13 1011.19 1011.31 1011.51 1011.79 1012.11 1012.47 1012.82 1013.15 1013.44 1013.70 1013.93 1014.14 1014.36 1014.60 1014.86 1015.14 1015.42 1015.70 1015.95 1016.16 1016.31 1016.42 1016.50 1016.58 1016.69 1016.86 1017.13 1017.49 1017.95 1018.50 1019.12 1019.76 1020.40 1021.00 1021.55 1022.04 1022.47 1022.85 1023.21
1011.56 1011.65 1011.71 1011.75 1011.82 1011.93 1012.09 1012.30 1012.54 1012.80 1013.06 1013.30 1013.52 1013.72 1013.92 1014.13 1014.36 1014.63 1014.93 1015.25 1015.59 1015.92 1016.22 1016.48 1016.67 1016.82 1016.93 1017.04 1017.17 1017.36 1017.64 1018.00 1018.47 1019.02 1019.63 1020.27 1020.91 1021.52 1022.08 1022.57 1023.02 1023.41 1023.77
1012.09 1012.28 1012.43 1012.53 1012.63 1012.74 1012.86 1013.00 1013.14 1013.29 1013.43 1013.56 1013.68 1013.81 1013.95 1014.13 1014.36 1014.63 1014.96 1015.32 1015.70 1016.08 1016.43 1016.73 1016.98 1017.17 1017.33 1017.48 1017.65 1017.87 1018.16 1018.53 1018.99 1019.52 1020.11 1020.73 1021.35 1021.94 1022.49 1022.99 1023.44 1023.84 1024.21
1012.68 1012.97 1013.21 1013.39 1013.53 1013.64 1013.72 1013.79 1013.84 1013.87 1013.88 1013.89 1013.90 1013.94 1014.01 1014.15 1014.35 1014.62 1014.95 1015.34 1015.75 1016.16 1016.56 1016.91 1017.21 1017.46 1017.67 1017.88 1018.09 1018.34 1018.65 1019.02 1019.47 1019.98 1020.54 1021.12 1021.70 1022.26 1022.78 1023.27 1023.71 1024.12 1024.50
1013.25 1013.65 1013.96 1014.21 1014.38 1014.50 1014.55 1014.55 1014.51 1014.43 1014.33 1014.22 1014.13 1014.08 1014.09 1014.17 1014.34 1014.59 1014.92 1015.32 1015.75 1016.19 1016.62 1017.01 1017.36 1017.67 1017.94 1018.20 1018.46 1018.75 1019.08 1019.46 1019.90 1020.38 1020.90 1021.43 1021.96 1022.47 1022.96 1023.41 1023.84 1024.25 1024.65
1013.79 1014.24 1014.61 1014.90 1015.10 1015.21 1015.24 1015.18 1015.06 1014.89 1014.70 1014.50 1014.33 1014.21 1014.16 1014.20 1014.34 1014.57 1014.90 1015.29 1015.73 1016.19 1016.64 1017.07 1017.46 1017.82 1018.15 1018.46 1018.77 1019.10 1019.45 1019.84 1020.27 1020.72 1021.20 1021.67 1022.15 1022.61 1023.05 1023.47 1023.88 1024.29 1024.69
Thickness
5791 5787 5782 5778 5773 5768 5763 5758 5753 5750 5745 5741 5737 5734 5734 5734 5735 5736 5737 5738 5738 5738 5738 5738 5737 5736 5735 5734 5732 5730 5728 5726 5726 5723 5721 5722 5724 5724 5725 5724 5724 5723 5722
5786 5785 5782 5777 5773 5768 5764 5758 5754 5750 5747 5744 5740 5738 5736 5734 5735 5736 5737 5738 5738 5738 5738 5738 5737 5736 5735 5733 5731 5730 5727 5726 5725 5722 5718 5715 5717 5722 5724 5724 5723 5723 5722
5786 5783 5780 5776 5773 5768 5765 5761 5756 5752 5748 5745 5741 5737 5734 5733 5732 5734 5735 5737 5738 5738 5738 5738 5737 5736 5735 5733 5731 5730 5728 5724 5724 5724 5720 5713 5711 5716 5720 5722 5723 5722 5721
5788 5784 5780 5775 5772 5770 5766 5762 5758 5753 5749 5745 5741 5737 5734 5731 5733 5735 5735 5736 5737 5737 5737 5737 5737 5736 5735 5733 5732 5731 5729 5726 5722 5722 5722 5721 5720 5715 5713 5717 5720 5720 5720
5789 5783 5780 5776 5774 5770 5765 5761 5757 5753 5750 5746 5742 5739 5736 5735 5735 5735 5735 5735 5736 5737 5737 5737 5737 5736 5734 5733 5732 5730 5729 5727 5725 5722 5721 5719 5718 5718 5714 5711 5714 5715 5716
5790 5784 5779 5775 5771 5768 5764 5759 5755 5752 5750 5747 5744 5740 5738 5736 5735 5734 5733 5733 5734 5735 5736 5736 5736 5735 5734 5733 5732 5730 5728 5727 5726 5724 5723 5721 5718 5716 5715 5711 5710 5710 5712
5787 5781 5776 5772 5769 5765 5762 5758 5754 5752 5750 5747 5744 5742 5740 5738 5736 5735 5734 5733 5733 5734 5735 5735 5734 5734 5733 5733 5731 5729 5728 5727 5725 5724 5723 5722 5722 5720 5717 5713 5709 5707 5708
5787 5782 5777 5773 5769 5766 5762 5758 5755 5752 5751 5748 5745 5743 5741 5739 5737 5737 5736 5735 5735 5735 5735 5735 5735 5734 5733 5732 5730 5729 5728 5726 5725 5724 5723 5722 5721 5720 5719 5715 5710 5704 5703
5786 5782 5777 5773 5769 5765 5761 5759 5755 5752 5750 5747 5745 5743 5741 5739 5738 5737 5736 5735 5735 5735 5735 5734 5733 5733 5732 5731 5729 5728 5726 5725 5724 5723 5722 5720 5720 5719 5718 5717 5714 5708 5700
5784 5781 5778 5774 5770 5766 5762 5759 5756 5752 5749 5747 5745 5743 5741 5740 5739 5737 5736 5736 5735 5735 5734 5733 5732 5731 5730 5729 5728 5726 5725 5723 5722 5721 5719 5718 5718 5717 5716 5714 5712 5710 5705
5784 5781 5778 5774 5770 5766 5762 5758 5755 5752 5749 5747 5745 5742 5741 5740 5739 5737 5736 5735 5735 5734 5733 5732 5730 5729 5728 5727 5725 5724 5722 5721 5719 5718 5717 5715 5714 5713 5712 5710 5708 5706 5703
5783 5781 5777 5773 5769 5764 5760 5756 5754 5751 5749 5747 5744 5742 5740 5738 5737 5736 5735 5734 5733 5733 5731 5730 5728 5727 5725 5724 5723 5721 5719 5717 5715 5714 5713 5711 5710 5708 5706 5705 5703 5701 5698
5780 5777 5775 5771 5767 5763 5759 5755 5752 5750 5748 5746 5744 5741 5738 5737 5735 5734 5733 5732 5731 5730 5728 5727 5725 5724 5723 5721 5720 5718 5716 5714 5712 5711 5709 5707 5705 5702 5700 5699 5696 5694 5692
5779 5775 5772 5768 5765 5761 5758 5755 5752 5750 5748 5745 5742 5739 5737 5735 5733 5731 5730 5729 5728 5726 5725 5724 5722 5721 5719 5718 5716 5715 5712 5710 5708 5706 5704 5702 5700 5698 5695 5692 5689 5687 5683
5777 5774 5770 5766 5762 5758 5755 5753 5750 5748 5746 5742 5739 5737 5735 5733 5730 5728 5727 5725 5724 5723 5721 5720 5718 5717 5715 5714 5712 5710 5708 5705 5702 5700 5698 5696 5694 5692 5690 5687 5683 5679 5675
5777 5774 5770 5766 5761 5758 5754 5751 5748 5746 5743 5739 5736 5734 5731 5729 5726 5725 5723 5721 5719 5718 5716 5715 5713 5711 5710 5709 5707 5705 5702 5699 5696 5693 5690 5688 5687 5684 5682 5679 5676 5673 5668
5777 5773 5770 5766 5762 5758 5754 5750 5747 5743 5740 5736 5733 5730 5728 5725 5723 5721 5718 5716 5713 5712 5711 5709 5707 5705 5703 5702 5700 5698 5695 5692 5689 5686 5683 5680 5677 5675 5672 5669 5665 5662 5659
5777 5773 5769 5764 5759 5756 5752 5749 5744 5740 5736 5733 5730 5727 5724 5721 5718 5715 5713 5710 5708 5707 5705 5702 5700 5698 5696 5694 5692 5690 5686 5683 5680 5677 5674 5671 5668 5665 5662 5658 5653 5648 5645
5776 5772 5768 5763 5757 5752 5749 5745 5740 5735 5731 5727 5725 5722 5720 5717 5713 5709 5707 5705 5702 5700 5697 5695 5693 5690 5688 5686 5684 5682 5678 5674 5670 5667 5665 5662 5658 5655 5652 5648 5642 5636 5632
5769 5766 5762 5757 5752 5748 5745 5740 5734 5729 5726 5723 5719 5716 5714 5712 5708 5704 5701 5698 5696 5693 5690 5687 5685 5682 5679 5677 5676 5674 5670 5665 5661 5657 5654 5651 5648 5644 5641 5638 5633 5627 5621
5760 5758 5754 5749 5745 5741 5738 5732 5727 5723 5721 5718 5714 5711 5708 5706 5702 5698 5695 5692 5689 5685 5682 5679 5676 5673 5671 5668 5667 5665 5662 5658 5653 5648 5644 5640 5637 5634 5630 5627 5623 5618 5612
5750 5748 5744 5739 5736 5734 5730 5725 5720 5717 5715 5712 5709 5704 5700 5699 5696 5692 5688 5685 5681 5677 5674 5671 5667 5664 5661 5659 5657 5655 5652 5649 5645 5639 5634 5630 5626 5623 5619 5615 5611 5606 5602
5737 5735 5733 5728 5725 5723 5721 5717 5713 5709 5707 5704 5699 5695 5692 5690 5688 5685 5681 5677 5673 5670 5666 5663 5659 5654 5651 5648 5646 5644 5641 5637 5634 5629 5625 5620 5616 5612 5608 5603 5599 5595 5591
5723 5722 5720 5716 5713 5712 5710 5707 5703 5701 5698 5695 5691 5687 5684 5681 5679 5676 5673 5670 5666 5663 5659 5656 5652 5647 5642 5639 5636 5633 5629 5625 5621 5617 5612 5608 5604 5601 5597 5591 5587 5584 5580
5710 5708 5707 5705 5702 5700 5697 5695 5693 5691 5688 5685 5681 5678 5675 5672 5669 5666 5663 5661 5658 5656 5653 5649 5645 5641 5636 5631 5628 5625 5620 5616 5612 5606 5601 5597 5593 5589 5585 5580 5576 5572 5569
5699 5696 5696 5694 5691 5689 5687 5685 5683 5681 5678 5675 5672 5669 5666 5662 5660 5656 5651 5648 5647 5644 5643 5640 5636 5631 5627 5622 5618 5614 5610 5605 5601 5598 5593 5588 5584 5580 5576 5572 5567 5563 5559